EW3867 Weather Reports


time (UTC)temp
C
wind
direction
speed
KPH
gust
KPH
rain 1hr
cm
rain 24hr
cm
rain mn
cm
humidity
%
barometer
mb
20260505022632 13 217 0.0 0.0 0.00 0.00 0.00 27 1001.8
20260505015410 14 217 0.0 0.0 0.00 0.00 0.00 26 1001.5
20260505013251 15 271 0.0 0.0 0.00 0.00 0.00 24 1001.6
20260505012254 15 270 0.0 3.2 0.00 0.00 0.00 24 1001.5
20260505011228 16 271 0.0 1.6 0.00 0.00 0.00 24 1001.5
20260505005124 16 0 0.0 0.0 0.00 0.00 0.00 25 1001.8
20260505004128 16 262 0.0 1.6 0.00 0.00 0.00 24 1001.6
20260505003114 16 238 0.0 0.0 0.00 0.00 0.00 24 1001.6
20260505002127 16 244 0.0 8.0 0.00 0.00 0.00 24 1001.8
20260505000008 17 0 0.0 0.0 0.00 0.00 0.00 24 1001.9
20260504233900 17 210 0.0 12.9 0.00 0.00 0.00 23 1002.1
20260504232829 17 223 1.6 19.3 0.00 0.00 0.00 22 1002.4
20260504231827 17 209 4.8 19.3 0.00 0.00 0.00 22 1002.5
20260504230826 17 0 4.8 17.7 0.00 0.00 0.00 20 1002.4
20260504225823 17 0 4.8 17.7 0.00 0.00 0.00 20 1002.5
20260504224749 17 0 4.8 20.9 0.00 0.00 0.00 21 1002.5
20260504223727 17 250 0.0 0.0 0.00 0.00 0.00 21 1002.4
20260504222739 17 268 6.4 25.7 0.00 0.00 0.00 22 1002.2
20260504220537 17 259 6.4 22.5 0.00 0.00 0.00 22 1002.6
20260504215512 17 205 6.4 20.9 0.00 0.00 0.00 22 1002.5
20260504214504 17 218 6.4 24.1 0.00 0.00 0.00 23 1002.6
20260504213459 17 250 9.7 29.0 0.00 0.00 0.00 22 1002.7
20260504211316 17 217 9.7 24.1 0.00 0.00 0.00 26 1002.9
20260504210253 17 243 6.4 22.5 0.00 0.00 0.00 27 1003.0
20260504205304 17 229 1.6 22.5 0.00 0.00 0.00 28 1003.0
20260504204304 16 229 1.6 17.7 0.00 0.00 0.00 30 1003.3
20260504203307 17 262 9.7 22.5 0.00 0.00 0.00 30 1003.5
20260504195948 16 252 4.8 16.1 0.00 0.00 0.00 32 1003.7
20260504194939 16 0 0.0 16.1 0.00 0.00 0.00 32 1003.9
20260504193946 16 251 6.4 22.5 0.00 0.00 0.00 33 1004.0
20260504192916 16 207 4.8 19.3 0.00 0.00 0.00 33 1003.9
20260504191851 16 229 6.4 20.9 0.00 0.00 0.00 34 1004.0
20260504190824 16 237 0.0 8.0 0.00 0.00 0.00 33 1003.9
20260504185810 16 225 6.4 25.7 0.00 0.00 0.00 33 1004.0
20260504184743 16 0 6.4 25.7 0.00 0.00 0.00 34 1004.1
20260504183741 16 0 4.8 22.5 0.00 0.00 0.00 35 1004.2
20260504182745 15 213 6.4 22.5 0.00 0.00 0.00 35 1004.5
20260504181733 15 248 6.4 22.5 0.00 0.00 0.00 35 1004.5
20260504180702 15 209 6.4 20.9 0.00 0.00 0.00 34 1004.9
20260504175630 15 237 6.4 19.3 0.00 0.00 0.00 36 1004.8
20260504174613 15 255 1.6 19.3 0.00 0.00 0.00 37 1004.8
20260504172453 15 215 0.0 17.7 0.00 0.00 0.00 36 1004.9
20260504171427 15 227 4.8 20.9 0.00 0.00 0.00 37 1004.8
20260504170402 14 246 1.6 20.9 0.00 0.00 0.00 37 1004.9
20260504160415 13 67 0.0 0.0 0.00 0.00 0.00 48 1005.0
20260504151142 12 28 0.0 0.0 0.00 0.00 0.00 51 1005.2
20260504150114 12 28 0.0 0.0 0.00 0.00 0.00 52 1005.2
20260504141126 10 15 0.0 0.0 0.00 0.00 0.00 57 1005.3
20260504081816 12 5 11.3 22.5 0.00 0.00 0.00 46 1005.7
20260504080832 11 0 6.4 22.5 0.00 0.00 0.00 50 1005.9
20260504045728 14 336 4.8 17.7 0.00 0.00 0.00 35 1007.1
20260504044747 15 332 1.6 14.5 0.00 0.00 0.00 34 1007.1
20260504043751 15 0 0.0 1.6 0.00 0.00 0.00 33 1007.2
20260504042814 15 343 4.8 1.6 0.00 0.00 0.00 33 1007.3
20260504041838 15 0 12.9 30.6 0.00 0.00 0.00 32 1007.6
20260504034521 15 267 4.8 25.7 0.00 0.00 0.00 29 1007.3
20260504033447 15 268 6.4 19.3 0.00 0.00 0.00 29 1007.0
20260504032511 14 234 0.0 17.7 0.00 0.00 0.00 29 1006.9
20260504031455 14 236 0.0 0.0 0.00 0.00 0.00 28 1006.7
20260504030422 15 236 0.0 0.0 0.00 0.00 0.00 28 1006.5
20260504025440 15 236 0.0 0.0 0.00 0.00 0.00 27 1006.3
20260504024648 15 236 0.0 0.0 0.00 0.00 0.00 27 1006.3